Aeroporto :
LOGIN :

Iscrizione | Disclaimer

   EN    FR    IT 

 










Sommario :    VFR   VFR Marginale   IFR   IFR Intensivo   IFR Molto Intensivo
Visibilità : 
Base nubi : 
>= 8 km
>= 3000ft
5 / 8 km
1000 / 3000 ft
1500m / 5 km
500 / 1000 ft
800 / 1500m
200 / 500 ft
< 800m
< 200 ft
Simboli :   Temporali  Nebbia  Neve Forte  Precipitazioni Forti  Vento > 20 kt
SIGMETs :   Varie  Temporali  Ghiacco  Turbolenza  Onda orograficha  Ceneri Vulcaniche







- Altitudine del aeroporto : 587 ft
- Codice IATA : XCR
- Carte del aeroporto


LFOK - Chalons Vatry

ULTIMO METAR :
  • 231200Z AUTO 07003KT 330V120 CAVOK 20/08 Q1018 NOSIG

METARs OBSOLETI :
  • 231130Z AUTO 34003KT 260V030 CAVOK 20/09 Q1018 NOSIG
  • 231100Z AUTO VRB03KT CAVOK 20/06 Q1019 NOSIG
  • 231030Z AUTO 02005KT 300V060 9999 FEW049 20/08 Q1019 NOSIG
  • 231000Z AUTO 01003KT 290V080 9999 FEW041 21/10 Q1019 NOSIG

TAF TAF LFOK
Valido dal 23 a 12 ore il 24 a 12 ore UTC


231100Z 2312/2412 VRB03KT CAVOK
BECMG 2409/2412 30010KT
Nessun NOTAM noto per questo aeroporto.



MetMap, La meteo Aeronautica in un colpo d'occhio ! - Copyright ORBIFLY Dicembre 2007 - Disclaimer

ORBIFLY MET'MAP TEAM :

Programmazione e sviluppo : Alexandra Zaïnal
Concezione e sviluppo : Baudouin d'Aumeries
Co-Programmazione e sviluppo : Marc-Olivier Méhu
Supporto tecnico e logistico : Manuel Goepfert
Aiuto per la traduzione : Arnaldo La Scala

Contatto : metmap@orbifly.com




FONTI E CREDITI :

   NOAA